When you browse on this site, cookies collect data to enhance your experience and personalize the content and advertising you see.
Visit our Privacy Policy to learn more. By continuing to use the site, you agree to this use of cookies and data.
  • în România
  • Lista ţărilor
  • Pe 7 zile
  • Temperatura apei
  • Meteo pe hartă
  • Widget-uri
  • user-avatar
    Intrare

    Meteo pe oră la Prutz

    Astăzi, 19 Septembrie, Joi

    Timp Temperatura Precipitaţii Vânt Presiune Umiditate
    00:00 +8°C° 0 mm 1 m/s 637 mmHg 91%
    01:00 +8°C° 0 mm 1 m/s 636 mmHg 92%
    02:00 +7°C° 0 mm 1 m/s 636 mmHg 93%
    03:00 +6°C° 0 mm 1 m/s 636 mmHg 94%
    04:00 +5°C° 0 mm 0 m/s 635 mmHg 94%
    05:00 +6°C° 0 mm 1 m/s 635 mmHg 91%
    06:00 +7°C° 0 mm 1 m/s 636 mmHg 88%
    07:00 +7°C° 0 mm 1 m/s 636 mmHg 86%
    08:00 +9°C° 0 mm 1 m/s 637 mmHg 78%
    09:00 +9°C° 0 mm 2 m/s 637 mmHg 70%
    10:00 +12°C° 0 mm 2 m/s 638 mmHg 62%
    11:00 +13°C° 0 mm 2 m/s 638 mmHg 57%
    12:00 +14°C° 0 mm 2 m/s 639 mmHg 53%
    13:00 +15°C° 0 mm 2 m/s 639 mmHg 48%
    14:00 +15°C° 0 mm 2 m/s 639 mmHg 49%
    15:00 +15°C° 0 mm 2 m/s 639 mmHg 51%
    16:00 +15°C° 0 mm 2 m/s 639 mmHg 52%
    17:00 +12°C° 0 mm 2 m/s 638 mmHg 64%
    18:00 +9°C° 0 mm 1 m/s 637 mmHg 77%
    19:00 +7°C° 0 mm 1 m/s 637 mmHg 89%
    20:00 +6°C° 0 mm 1 m/s 637 mmHg 89%
    21:00 +5°C° 0 mm 0 m/s 637 mmHg 89%
    22:00 +4°C° 0 mm 0 m/s 637 mmHg 89%
    23:00 +4°C° 0 mm 0 m/s 637 mmHg 88%

    Mâine, 20 Septembrie, Vineri

    Timp Temperatura Precipitaţii Vânt Presiune Umiditate
    00:00 +4°C° 0 mm 0 m/s 637 mmHg 88%
    01:00 +4°C° 0 mm 0 m/s 637 mmHg 87%
    02:00 +4°C° 0 mm 0 m/s 637 mmHg 85%
    03:00 +4°C° 0 mm 0 m/s 637 mmHg 82%
    04:00 +4°C° 0 mm 0 m/s 637 mmHg 80%
    05:00 +5°C° 0 mm 0 m/s 637 mmHg 78%
    06:00 +6°C° 0 mm 0 m/s 637 mmHg 75%
    07:00 +7°C° 0 mm 0 m/s 638 mmHg 72%
    08:00 +9°C° 0 mm 0 m/s 639 mmHg 60%
    09:00 +13°C° 0 mm 1 m/s 639 mmHg 49%
    10:00 +15°C° 0 mm 1 m/s 640 mmHg 37%
    11:00 +16°C° 0 mm 1 m/s 640 mmHg 36%
    12:00 +17°C° 0 mm 2 m/s 640 mmHg 35%
    13:00 +18°C° 0 mm 2 m/s 640 mmHg 33%
    14:00 +18°C° 0 mm 2 m/s 640 mmHg 37%
    15:00 +17°C° 0 mm 2 m/s 640 mmHg 40%
    16:00 +17°C° 0 mm 2 m/s 639 mmHg 44%
    17:00 +14°C° 0 mm 1 m/s 638 mmHg 57%
    18:00 +11°C° 0 mm 1 m/s 637 mmHg 70%
    19:00 +7°C° 0 mm 0 m/s 636 mmHg 83%
    20:00 +8°C° 0 mm 1 m/s 637 mmHg 83%
    21:00 +8°C° 0 mm 1 m/s 637 mmHg 83%
    22:00 +8°C° 0 mm 1 m/s 637 mmHg 82%
    23:00 +8°C° 0 mm 1 m/s 637 mmHg 83%

    Poimâine, 21 Septembrie, Sâmbătă

    Timp Temperatura Precipitaţii Vânt Presiune Umiditate
    00:00 +8°C° 0 mm 1 m/s 637 mmHg 84%
    01:00 +8°C° 0 mm 1 m/s 637 mmHg 84%
    02:00 +8°C° 0 mm 1 m/s 636 mmHg 85%
    03:00 +7°C° 0 mm 2 m/s 636 mmHg 85%
    04:00 +7°C° 0 mm 2 m/s 636 mmHg 86%
    05:00 +7°C° 0 mm 2 m/s 636 mmHg 84%
    06:00 +9°C° 0 mm 1 m/s 636 mmHg 83%
    07:00 +9°C° 0 mm 1 m/s 636 mmHg 81%
    08:00 +12°C° 0 mm 1 m/s 637 mmHg 71%
    09:00 +15°C° 0 mm 1 m/s 638 mmHg 61%
    10:00 +19°C° 0 mm 1 m/s 639 mmHg 51%
    11:00 +20°C° 0 mm 1 m/s 639 mmHg 48%
    12:00 +21°C° 0 mm 1 m/s 639 mmHg 46%
    13:00 +21°C° 0 mm 1 m/s 639 mmHg 43%
    14:00 +20°C° 0 mm 2 m/s 638 mmHg 46%
    15:00 +20°C° 0 mm 2 m/s 638 mmHg 48%
    16:00 +19°C° 0 mm 2 m/s 637 mmHg 51%
    17:00 +17°C° 0 mm 2 m/s 636 mmHg 61%
    18:00 +14°C° 0 mm 2 m/s 636 mmHg 71%
    19:00 +12°C° 0 mm 2 m/s 635 mmHg 82%
    20:00 +10°C° 0 mm 3 m/s 635 mmHg 83%
    21:00 +10°C° 0 mm 3 m/s 635 mmHg 84%
    22:00 +10°C° 0 mm 3 m/s 634 mmHg 86%
    23:00 +9°C° 0 mm 3 m/s 634 mmHg 86%

    22 Septembrie, Duminică

    Timp Temperatura Precipitaţii Vânt Presiune Umiditate
    00:00 +9°C° 0 mm 3 m/s 634 mmHg 86%
    01:00 +9°C° 0 mm 3 m/s 634 mmHg 86%
    02:00 +9°C° 0 mm 3 m/s 633 mmHg 86%
    03:00 +9°C° 0 mm 3 m/s 633 mmHg 86%
    04:00 +8°C° 0 mm 3 m/s 633 mmHg 85%
    05:00 +9°C° 0 mm 2 m/s 633 mmHg 84%
    06:00 +9°C° 0 mm 2 m/s 633 mmHg 83%
    07:00 +10°C° 0 mm 2 m/s 633 mmHg 82%
    08:00 +13°C° 0 mm 2 m/s 634 mmHg 76%
    09:00 +15°C° 0 mm 2 m/s 634 mmHg 69%
    10:00 +18°C° 0 mm 1 m/s 635 mmHg 63%
    11:00 +18°C° 0.2 mm 1 m/s 635 mmHg 62%
    12:00 +19°C° 0.2 mm 1 m/s 635 mmHg 61%
    13:00 +20°C° 0.2 mm 1 m/s 635 mmHg 60%
    14:00 +19°C° 0.6 mm 1 m/s 634 mmHg 64%
    15:00 +18°C° 0.6 mm 1 m/s 633 mmHg 69%
    16:00 +18°C° 0.6 mm 1 m/s 633 mmHg 73%
    17:00 +15°C° 0.2 mm 2 m/s 632 mmHg 78%
    18:00 +14°C° 0.2 mm 2 m/s 632 mmHg 83%
    19:00 +13°C° 0.2 mm 2 m/s 631 mmHg 88%
    20:00 +12°C° 0 mm 2 m/s 631 mmHg 89%
    21:00 +12°C° 0 mm 2 m/s 631 mmHg 90%
    22:00 +10°C° 0 mm 2 m/s 631 mmHg 91%
    23:00 +10°C° 0 mm 2 m/s 631 mmHg 92%

    23 Septembrie, Luni

    Timp Temperatura Precipitaţii Vânt Presiune Umiditate
    00:00 +10°C° 0 mm 2 m/s 631 mmHg 93%
    01:00 +9°C° 0 mm 2 m/s 631 mmHg 93%
    02:00 +10°C° 0.1 mm 1 m/s 631 mmHg 94%
    03:00 +10°C° 0.1 mm 1 m/s 631 mmHg 95%
    04:00 +9°C° 0.1 mm 1 m/s 631 mmHg 96%
    05:00 +8°C° 1.5 mm 2 m/s 631 mmHg 97%
    06:00 +8°C° 1.5 mm 2 m/s 631 mmHg 97%
    07:00 +7°C° 1.5 mm 3 m/s 631 mmHg 97%
    08:00 +7°C° 3.4 mm 2 m/s 631 mmHg 97%
    09:00 +6°C° 3.4 mm 2 m/s 631 mmHg 96%
    10:00 +7°C° 3.4 mm 1 m/s 632 mmHg 95%
    11:00 +8°C° 0.9 mm 1 m/s 632 mmHg 94%
    12:00 +8°C° 0.9 mm 1 m/s 632 mmHg 93%
    13:00 +9°C° 0.9 mm 1 m/s 632 mmHg 92%
    14:00 +9°C° 0.1 mm 1 m/s 632 mmHg 90%
    15:00 +10°C° 0.1 mm 1 m/s 631 mmHg 87%
    16:00 +10°C° 0.1 mm 1 m/s 631 mmHg 84%
    17:00 +9°C° 0.1 mm 1 m/s 631 mmHg 87%
    18:00 +7°C° 0.1 mm 1 m/s 631 mmHg 91%
    19:00 +6°C° 0.1 mm 1 m/s 631 mmHg 95%
    20:00 +6°C° 0.1 mm 1 m/s 631 mmHg 94%
    21:00 +6°C° 0.1 mm 1 m/s 632 mmHg 94%
    22:00 +6°C° 0.1 mm 1 m/s 632 mmHg 94%
    23:00 +6°C° 0.1 mm 1 m/s 632 mmHg 94%

    24 Septembrie, Marţi

    Timp Temperatura Precipitaţii Vânt Presiune Umiditate
    00:00 +5°C° 0.1 mm 1 m/s 632 mmHg 94%
    01:00 +5°C° 0.1 mm 1 m/s 632 mmHg 94%
    02:00 +5°C° 0.1 mm 1 m/s 632 mmHg 94%
    03:00 +5°C° 0.1 mm 1 m/s 632 mmHg 94%
    04:00 +5°C° 0.1 mm 1 m/s 632 mmHg 93%
    05:00 +5°C° 0.2 mm 1 m/s 632 mmHg 94%
    06:00 +6°C° 0.2 mm 1 m/s 632 mmHg 95%
    07:00 +6°C° 0.2 mm 1 m/s 633 mmHg 95%
    08:00 +7°C° 0 mm 1 m/s 633 mmHg 91%
    09:00 +8°C° 0 mm 1 m/s 633 mmHg 86%
    10:00 +9°C° 0 mm 1 m/s 634 mmHg 82%
    11:00 +11°C° 0 mm 1 m/s 634 mmHg 75%
    12:00 +12°C° 0 mm 1 m/s 634 mmHg 68%
    13:00 +13°C° 0 mm 1 m/s 634 mmHg 62%
    14:00 +13°C° 0 mm 1 m/s 634 mmHg 62%
    15:00 +14°C° 0 mm 1 m/s 634 mmHg 63%
    16:00 +14°C° 0 mm 1 m/s 634 mmHg 64%
    17:00 +12°C° 0 mm 1 m/s 633 mmHg 71%
    18:00 +10°C° 0 mm 1 m/s 633 mmHg 78%
    19:00 +8°C° 0 mm 0 m/s 632 mmHg 85%
    20:00 +9°C° 0 mm 1 m/s 632 mmHg 83%
    21:00 +10°C° 0 mm 1 m/s 633 mmHg 81%
    22:00 +10°C° 0 mm 1 m/s 633 mmHg 79%
    23:00 +10°C° 0.1 mm 1 m/s 633 mmHg 81%
    Arată mai mult